Danville, VA

8:13 PM EST on February 25, 2017 (GMT -0500)
Danville Regional

Weather History for KDAN - April, 2013

Change the Weather History Date:

Thursday, April 11, 2013

  Actual Average Record
Temperature  
Mean Temperature 72 °F 57 °F  
Max Temperature 82 °F 68 °F 92 °F (2001)
Min Temperature 61 °F 46 °F 25 °F (1960)
Degree Days  
Heating Degree Days 0 9  
Month to date heating degree days 106 112  
Since 1 July heating degree days 3561 3623  
Cooling Degree Days 7 1  
Month to date cooling degree days 21 10  
Year to date cooling degree days 23 13  
Growing Degree Days 22 (Base 50)    
Moisture  
Dew Point 57 °F    
Average Humidity 59    
Maximum Humidity 78    
Minimum Humidity 40    
Precipitation  
Precipitation 0.00 in 0.13 in 0.90 in (1958)
Month to date precipitation 0.88 1.41  
Year to date precipitation 13.24 11.95  
Snow  
Snow 0.00 in - - ()
Month to date snowfall 0.0  
Since 1 July snowfall 1.7  
Snow Depth 0.00 in    
Sea Level Pressure  
Sea Level Pressure 29.85 in    
Wind  
Wind Speed 9 mph (SSW)    
Max Wind Speed 22 mph    
Max Gust Speed 29 mph    
Visibility 10 miles    
Events      
T = Trace of Precipitation, MM = Missing Value Source: NWS Daily Summary

Daily Weather History Graph

Daily Weather History Graph

Search for Another Location

Airport or City:

Trip Planner

Search our weather history database for the weather conditions in past years. The results will help you decide how hot, cold, wet, or windy it might be!

Date:

Astronomy

Apr. 11, 2013 Rise Set
Actual Time 6:48 AM EDT 7:48 PM EDT
Civil Twilight 6:22 AM EDT 8:14 PM EDT
Nautical Twilight 5:51 AM EDT 8:46 PM EDT
Astronomical Twilight 5:18 AM EDT 9:18 PM EDT
Moon 7:21 AM EDT (4/11) 9:18 PM EDT (4/11)
Length of Visible Light 13h 52m
Length of Day
12h 59m
New Moon, 2% of the Moon is Illuminated
Apr 11
New Moon
Apr 18
First Quarter
Apr 25
Full
May 2
Last Quarter
May 9
New

Hourly Weather History & Observations

Time (EDT) Temp. Heat Index Dew Point Humidity Pressure Visibility Wind Dir Wind Speed Gust Speed Precip Events Conditions
12:53 AM 72.0 °F - 55.9 °F 57% 29.90 in 10.0 mi SSW 8.1 mph - N/A   Clear
1:53 AM 70.0 °F - 57.0 °F 63% 29.91 in 10.0 mi SSW 8.1 mph - N/A   Clear
2:53 AM 68.0 °F - 57.0 °F 68% 29.89 in 10.0 mi SSW 6.9 mph - N/A   Clear
3:53 AM 66.0 °F - 55.9 °F 70% 29.89 in 10.0 mi SSW 6.9 mph - N/A   Clear
4:53 AM 64.0 °F - 55.0 °F 73% 29.89 in 10.0 mi SSW 4.6 mph - N/A   Clear
5:53 AM 62.1 °F - 54.0 °F 75% 29.90 in 10.0 mi SSW 4.6 mph - N/A   Clear
6:53 AM 62.1 °F - 55.0 °F 78% 29.91 in 10.0 mi SSW 5.8 mph - N/A   Clear
7:53 AM 64.0 °F - 55.9 °F 75% 29.93 in 10.0 mi SW 9.2 mph - N/A   Clear
8:53 AM 66.9 °F - 57.9 °F 73% 29.94 in 10.0 mi SW 10.4 mph - N/A   Clear
9:53 AM 71.1 °F - 59.0 °F 66% 29.93 in 10.0 mi SW 13.8 mph 19.6 mph N/A   Clear
10:53 AM 73.9 °F - 59.0 °F 59% 29.92 in 10.0 mi SW 12.7 mph 20.7 mph N/A   Scattered Clouds
11:53 AM 77.0 °F - 60.1 °F 56% 29.91 in 10.0 mi SSW 9.2 mph 20.7 mph N/A   Clear
1:53 PM 81.0 °F 81.1 °F 57.9 °F 45% 29.86 in 10.0 mi SSW 15.0 mph 26.5 mph N/A   Partly Cloudy
2:53 PM 80.1 °F 80.7 °F 59.0 °F 48% 29.83 in 10.0 mi SW 18.4 mph 25.3 mph N/A   Partly Cloudy
3:53 PM 80.1 °F 80.2 °F 55.9 °F 43% 29.81 in 10.0 mi SSW 13.8 mph 24.2 mph N/A   Mostly Cloudy
4:53 PM 82.0 °F 81.6 °F 55.9 °F 41% 29.78 in 10.0 mi South 10.4 mph 21.9 mph N/A   Clear
5:53 PM 80.1 °F 80.1 °F 55.0 °F 42% 29.76 in 10.0 mi SSW 6.9 mph 16.1 mph N/A   Clear
6:53 PM 79.0 °F - 55.9 °F 45% 29.76 in 10.0 mi Variable 5.8 mph - N/A   Clear
7:53 PM 77.0 °F - 57.0 °F 50% 29.76 in 10.0 mi South 4.6 mph - N/A   Clear
8:53 PM 75.0 °F - 57.0 °F 53% 29.75 in 10.0 mi South 4.6 mph - N/A   Partly Cloudy
9:53 PM 73.9 °F - 57.0 °F 55% 29.75 in 10.0 mi South 3.5 mph - N/A   Partly Cloudy
10:53 PM 73.9 °F - 57.9 °F 57% 29.74 in 10.0 mi Variable 5.8 mph - N/A   Mostly Cloudy
11:53 PM 73.9 °F - 61.0 °F 64% 29.74 in 10.0 mi South 6.9 mph - N/A   Clear